Home   Weather   Phuket   Past weeks

Flag for Thailand Past Weather in Phuket, Thailand — Yesterday and Last 2 Weeks

Now
86 °F

Scattered clouds.


Feels Like: 93 °F
Forecast: 80 / 88 °F
Wind: 10 mph from West

Location: Phuket Airport

Current Time: Jul 21, 2017 at 4:38:25 pm

Latest Report: Jul 21, 2017 at 4:00 pm


Visibility: 5 mi

Pressure: 29.80 "Hg

Humidity: 66%

Dew Point: 73 °F

Location of PhuketLocation

Past Weather in Phuket — Graph

°F

Phuket Temperature Yesterday

Maximum temperature yesterday: 88 °F (at 10:30 am)
Minimum temperature yesterday: 82 °F (at 1:00 am)
Average temperature yesterday: 85 °F

High & Low Weather Summary for the Past Weeks

 TemperatureHumidityPressure
High90 °F (Jul 13, 12:30 pm)89% (Jul 9, 12:00 am)29.95 "Hg (Jul 9, 12:00 am)
Low75 °F (Jul 13, 5:00 pm)55% (Jul 13, 2:00 pm)29.74 "Hg (Jul 16, 3:30 pm)
Average83 °F74%29.86 "Hg
* Reported Jul 6 3:00 pm — Jul 21 3:00 pm, Phuket. Weather by CustomWeather, © 2017

Note: Actual official high and low records may vary slightly from our data, if they occured in-between our weather recording intervals... More about our weather records

Advertising

Phuket Weather History for the Previous 24 Hours

Scroll right to see more
 ConditionsComfort  
Time TempWeatherWind HumidityBarometerVisibility
3:00 pm
Fri, Jul 21
86 °FPartly sunny.9 mph66%29.83 "Hg5 mi
2:30 pm88 °FPartly sunny.13 mph62%29.83 "Hg5 mi
2:00 pm88 °FPartly sunny.13 mph62%29.83 "Hg5 mi
1:30 pm88 °FBroken clouds.13 mph66%29.86 "Hg5 mi
12:30 pm88 °FScattered clouds.13 mph66%29.86 "Hg5 mi
12:00 pm88 °FScattered clouds.13 mph66%29.86 "Hg5 mi
11:30 am88 °FBroken clouds.13 mph66%29.89 "Hg5 mi
11:00 am86 °FBroken clouds.10 mph70%29.89 "Hg5 mi
10:30 am86 °FBroken clouds.7 mph70%29.89 "Hg5 mi
10:00 am86 °FBroken clouds.6 mph70%29.89 "Hg5 mi
9:30 am86 °FBroken clouds.7 mph70%29.89 "Hg5 mi
9:00 am84 °FBroken clouds.7 mph74%29.86 "Hg5 mi
8:30 am84 °FBroken clouds.2 mph74%29.86 "Hg5 mi
8:00 am82 °FBroken clouds.2 mph79%29.86 "Hg5 mi
7:30 am81 °FBroken clouds.1 mph84%29.86 "Hg5 mi
7:00 am81 °FBroken clouds.No wind79%29.83 "Hg5 mi
6:30 am81 °FBroken clouds.2 mph79%29.83 "Hg5 mi
6:00 am81 °FPartly cloudy.2 mph79%29.83 "Hg5 mi
5:30 am82 °FPartly cloudy.3 mph74%29.83 "Hg5 mi
5:00 am81 °FPartly cloudy.2 mph79%29.83 "Hg5 mi
4:30 am81 °FPartly cloudy.3 mph79%29.83 "Hg5 mi
3:30 am82 °FPartly cloudy.5 mph74%29.83 "Hg5 mi
3:00 am82 °FPartly cloudy.6 mph74%29.83 "Hg5 mi
2:30 am82 °FPartly cloudy.6 mph74%29.83 "Hg5 mi
2:00 am82 °FPartly cloudy.8 mph74%29.83 "Hg5 mi
1:30 am82 °FPartly cloudy.8 mph74%29.83 "Hg5 mi
1:00 am82 °FPartly cloudy.7 mph74%29.86 "Hg5 mi
12:30 am82 °FPartly cloudy.5 mph74%29.86 "Hg5 mi
12:00 am84 °FPartly cloudy.5 mph70%29.89 "Hg5 mi
11:30 pm
Thu, Jul 20
84 °FPartly cloudy.6 mph70%29.89 "Hg5 mi
11:00 pm84 °FPartly cloudy.7 mph70%29.89 "Hg5 mi
10:30 pm84 °FPartly cloudy.7 mph70%29.89 "Hg5 mi
10:00 pm84 °FPartly cloudy.7 mph70%29.89 "Hg5 mi
9:30 pm84 °FPartly cloudy.5 mph70%29.89 "Hg5 mi
9:00 pm84 °FPartly cloudy.6 mph70%29.89 "Hg5 mi
8:30 pm84 °FPartly cloudy.10 mph70%29.86 "Hg5 mi
7:30 pm84 °FPartly cloudy.8 mph70%29.83 "Hg5 mi
7:00 pm84 °FPartly cloudy.10 mph70%29.83 "Hg5 mi
6:30 pm84 °FBroken clouds.13 mph74%29.83 "Hg5 mi
6:00 pm86 °FBroken clouds.15 mph70%29.80 "Hg5 mi
5:30 pm86 °FBroken clouds.13 mph66%29.80 "Hg5 mi
5:00 pm86 °FScattered clouds.14 mph66%29.80 "Hg5 mi
4:30 pm86 °FScattered clouds.14 mph66%29.80 "Hg5 mi
4:00 pm86 °FPartly sunny.16 mph70%29.80 "Hg5 mi
Weather by CustomWeather, © 2017

See weather overviewHow to use our weather pages